Regional Weather Roundup
Issued by NWS

Home | Current Version | Previous Version | Graphics & Text | Print | Product List | Glossary Off
Versions: 1 2 3 4 5 6 7 8 9 10 11 12 13 14 15 16 17 18 19 20 21 22 23 24 25 26 27 28 29 30 31 32 33 34 35 36 37 38 39 40 41 42 43 44 45 46 47 48 49 50

000
ASUS44 KMEG 290310
RWRTN
TENNESSEE HOURLY STATE WEATHER ROUNDUP
NATIONAL WEATHER SERVICE MEMPHIS TN
1000 PM CDT WED SEP 28 2016

TNZ002-004-019-021-049-052-054-088>092-290400-
WEST TENNESSEE

CITY           SKY/WX    TMP DP  RH WIND       PRES   REMARKS
MEMPHIS INTL   PTCLDY    68  49  50 NE21G26   30.06R
NWS MEMPHIS      N/A     66 N/A N/A MISG        N/A
JACKSON          N/A    N/A N/A N/A MISG      30.06R
DYERSBURG      CLEAR    N/A N/A N/A MISG        N/A
UNION CITY     CLEAR     57  46  67 N7        30.08S
PARIS          CLEAR     55  45  67 N10       30.08R
HUNTINGDON     CLEAR     59  46  63 VRB7      30.06R
LEXINGTON      CLEAR     61  46  59 N7        30.05R
$$

TNZ008-025-027-028-033-062-065-066-290400-
NORTH MIDDLE TENNESSEE

CITY           SKY/WX    TMP DP  RH WIND       PRES   REMARKS
NASHVILLE      CLEAR     61  49  64 N10G20    30.04R
PORTLAND       MOCLDY    55  50  82 N7        30.04R
CLARKSVILLE    CLEAR     55  44  66 N8        30.06R
SMYRNA         MOCLDY    61  53  75 NW12      30.04R
COOKEVILLE     MOCLDY    57  52  82 W6        30.04R
GALLATIN       PTCLDY    59  52  77 NW10      30.06R
CROSSVILLE     CLOUDY    58  49  72 N9G17     30.03R
$$

TNZ061-075-076-078-094-096-097-290400-
SOUTH MIDDLE TENNESSEE

CITY           SKY/WX    TMP DP  RH WIND       PRES   REMARKS
FAYETTEVILLE   CLOUDY    66  50  55 N10       30.01R
TULLAHOMA      MOCLDY    63  46  55 N10       30.03R
WINCHESTER     PTCLDY    64  48  55 NE6       30.02R
MCMINNVILLE    MOCLDY    61  54  77 NE6       30.02S
COLUMBIA       CLOUDY    64  52  63 N15       30.02R
SHELBYVILLE    PTCLDY    63  54  72 N6        30.04R
$$

TNZ017-018-042-046-047-290400-
NORTHEAST TENNESSEE

CITY           SKY/WX    TMP DP  RH WIND       PRES   REMARKS
TRI CITIES     PTCLDY    56  50  80 CALM      29.95R
ELIZABETHTON   CLEAR     57  52  82 CALM      29.96S
$$

TNZ012-013-036-069-073-074-290400-
CENTRAL EAST TENNESSEE

CITY           SKY/WX    TMP DP  RH WIND       PRES   REMARKS
KNOXVILLE      PTCLDY    68  51  54 N10       29.93R
OAK RIDGE      CLOUDY    68  52  56 CALM      29.96R
DOWNTOWN KNOXV CLEAR     68  55  64 VRB5      29.95R
GATLINBURG     CLEAR     59  48  67 NW13G20   29.93R
MORRISTOWN     CLEAR     64  52  63 N10       29.94R
JACKSBORO      CLOUDY    64  55  72 VRB5      30.01R
$$

TNZ083-085-099-290400-
SOUTHEAST TENNESSEE

CITY           SKY/WX    TMP DP  RH WIND       PRES   REMARKS
CHATTANOOGA    PTCLDY    63  53  70 CALM      29.92S
$$

SKY/WX REPORTED AS FAIR MEANS FEW OR NO CLOUDS BELOW
12 THOUSAND FEET.




USA.gov is the U.S. government's official web portal to all federal, state and local government web resources and services.